Weather History for Rhinelander, WI

Change the Weather History Date:

Thursday, December 19, 2013

  Actual Average Record
Temperature  
Mean Temperature 12 °F 16 °F  
Max Temperature 20 °F 24 °F 44 °F (1923)
Min Temperature 4 °F 7 °F -32 °F (1983)
Degree Days  
Heating Degree Days 53 49  
Month to date heating degree days 1099 882  
Since 1 July heating degree days 3326 3016  
Cooling Degree Days 0 0  
Month to date cooling degree days 0 0  
Year to date cooling degree days 281 261  
Moisture  
Dew Point 11 °F    
Average Humidity 85    
Maximum Humidity 96    
Minimum Humidity 73    
Precipitation  
Precipitation T in 0.04 in 1.16 in (1939)
Month to date precipitation 1.24 0.93  
Year to date precipitation 36.45 30.89  
Snow  
Snow 0.10 in - 8.00 in (1968)
Month to date snowfall 14.9  
Since 1 July snowfall 24.7  
Snow Depth 10.00 in    
Sea Level Pressure  
Sea Level Pressure 29.95 in    
Wind  
Wind Speed 7 mph (NNE)    
Max Wind Speed 12 mph    
Max Gust Speed 18 mph    
Visibility 9 miles    
Events Snow    
T = Trace of Precipitation, MM = Missing Value Source: NWS Daily Summary

Daily Weather History Graph

Daily Weather History Graph

Search for Another Location

Airport:

Trip Planner

Search our weather history database for the weather conditions in past years. The results will help you decide how hot, cold, wet, or windy it might be!

Date:

Astronomy

Dec. 19, 2013 Rise Set
Actual Time 7:34 AM CST 4:15 PM CST
Civil Twilight 7:00 AM CST 4:50 PM CST
Nautical Twilight 6:22 AM CST 5:28 PM CST
Astronomical Twilight 5:46 AM CST 6:04 PM CST
Moon 6:48 PM CST (12/19) 8:47 AM CST (12/19)
Length of Visible Light 9h 50m
Length of Day
8h 41m
Waning Gibbous, 95% of the Moon is Illuminated
Dec 19
Waning Gibbous
Dec 25
Last Quarter
Jan 1
New
Jan 7
First Quarter
Jan 15
Full

Hourly Weather History & Observations

Time (CST) Temp. Windchill Dew Point Humidity Pressure Visibility Wind Dir Wind Speed Gust Speed Precip Events Conditions
12:53 AM 8.1 °F -0.5 °F 6.1 °F 92% 29.79 in 10.0 mi West 4.6 mph - N/A   Clear
1:53 AM 12.9 °F 6.9 °F 10.9 °F 92% 29.80 in 10.0 mi WNW 3.5 mph - N/A   Clear
2:53 AM 16.0 °F 8.8 °F 12.0 °F 84% 29.84 in 10.0 mi Variable 4.6 mph - N/A   Clear
3:53 AM 15.1 °F 7.7 °F 12.0 °F 88% 29.86 in 10.0 mi North 4.6 mph - N/A   Clear
4:53 AM 16.0 °F 10.4 °F 12.0 °F 84% 29.89 in 10.0 mi NNW 3.5 mph - N/A   Clear
5:07 AM 15.8 °F 8.6 °F 12.2 °F 86% 29.81 in 10.0 mi NNW 4.6 mph - N/A   Mostly Cloudy
5:46 AM 15.8 °F 10.2 °F 12.2 °F 86% 29.83 in 10.0 mi North 3.5 mph - N/A   Overcast
5:53 AM 17.1 °F 10.0 °F 14.0 °F 88% 29.92 in 10.0 mi NNW 4.6 mph - N/A   Overcast
6:40 AM 17.6 °F 12.3 °F 15.8 °F 93% 29.85 in 10.0 mi Variable 3.5 mph - N/A   Overcast
6:53 AM 18.0 °F 12.7 °F 15.1 °F 88% 29.95 in 10.0 mi North 3.5 mph - N/A   Overcast
7:53 AM 18.0 °F 8.7 °F 15.1 °F 88% 29.97 in 10.0 mi NNW 6.9 mph - N/A   Overcast
8:53 AM 19.0 °F 11.1 °F 16.0 °F 88% 30.02 in 10.0 mi North 5.8 mph - N/A   Overcast
9:43 AM 19.4 °F 9.5 °F 15.8 °F 86% 29.94 in 10.0 mi North 8.1 mph - N/A   Overcast
9:53 AM 19.9 °F 10.1 °F 16.0 °F 85% 30.05 in 10.0 mi NNE 8.1 mph - N/A   Overcast
11:42 AM 19.0 °F 8.2 °F 12.9 °F 77% 29.99 in 10.0 mi NNE 9.2 mph - N/A   Overcast
11:53 AM 19.0 °F 7.5 °F 12.9 °F 77% 29.98 in 8.0 mi NNE 10.4 mph - N/A   Overcast
12:48 PM 17.6 °F 5.7 °F 10.4 °F 73% 29.98 in 10.0 mi NNE 10.4 mph - N/A   Scattered Clouds
12:53 PM 18.0 °F 6.9 °F 10.9 °F 74% 29.98 in 10.0 mi NNE 9.2 mph 16.1 mph N/A   Mostly Cloudy
1:48 PM 17.6 °F 8.2 °F 10.4 °F 73% 29.97 in 10.0 mi ENE 6.9 mph - N/A   Scattered Clouds
1:53 PM 17.1 °F 8.7 °F 10.9 °F 77% 29.97 in 10.0 mi NNE 5.8 mph - N/A   Scattered Clouds
2:53 PM 16.0 °F 5.3 °F 10.0 °F 77% 29.98 in 10.0 mi NNE 8.1 mph - N/A   Partly Cloudy
3:53 PM 15.1 °F 5.2 °F 9.0 °F 77% 29.99 in 10.0 mi NE 6.9 mph - N/A   Mostly Cloudy
4:53 PM 14.0 °F 6.5 °F 9.0 °F 80% 30.00 in 10.0 mi NNE 4.6 mph - N/A   Overcast
5:53 PM 14.0 °F 3.9 °F 9.0 °F 80% 30.01 in 10.0 mi NE 6.9 mph - N/A   Overcast
6:53 PM 14.0 °F 1.2 °F 7.0 °F 74% 30.01 in 10.0 mi NE 10.4 mph - N/A   Overcast
7:53 PM 12.9 °F 0.7 °F 7.0 °F 77% 30.02 in 10.0 mi NE 9.2 mph - N/A   Overcast
8:53 PM 12.0 °F -0.4 °F 6.1 °F 77% 30.01 in 10.0 mi NNE 9.2 mph - N/A   Overcast
9:53 PM 12.0 °F 0.5 °F 7.0 °F 80% 30.00 in 9.0 mi ENE 8.1 mph - N/A   Overcast
10:53 PM 10.9 °F 0.2 °F 7.0 °F 84% 29.99 in 9.0 mi NE 6.9 mph - 0.00 in   Overcast
11:10 PM 10.9 °F -0.8 °F 7.0 °F 84% 29.99 in 4.0 mi NE 8.1 mph - 0.00 in Snow Light Snow
11:23 PM 10.9 °F 0.2 °F 8.1 °F 88% 29.98 in 2.5 mi NE 6.9 mph - 0.00 in Snow Light Snow
11:53 PM 12.0 °F 2.7 °F 8.1 °F 84% 30.07 in 1.8 mi NE 5.8 mph - 0.00 in Snow Light Snow